Weather History for Naples, Italy

Change the Weather History Date:

Friday, October 14, 2011

  Actual Average Record
Temperature  
Mean Temperature 60 °F -  
Max Temperature 64 °F 67 °F 86 °F (2000)
Min Temperature 57 °F 50 °F 53 °F (1997)
Degree Days  
Heating Degree Days 4    
Growing Degree Days 10 (Base 50)    
Moisture  
Dew Point 47 °F    
Average Humidity 57    
Maximum Humidity 73    
Minimum Humidity 32    
Precipitation  
Precipitation 0.08 in 0.19 in - ()
Sea Level Pressure  
Sea Level Pressure 30.01 in    
Wind  
Wind Speed 12 mph ()    
Max Wind Speed 23 mph    
Max Gust Speed 38 mph    
Visibility 7.5 miles    
Events Rain , Thunderstorm    
Averages and records for this station are not official NWS values.
T = Trace of Precipitation, MM = Missing Value Source: Averaged Metar Reports

Daily Weather History Graph

Daily Weather History Graph

Search for Another Location

Airport:

Trip Planner

Search our weather history database for the weather conditions in past years. The results will help you decide how hot, cold, wet, or windy it might be!

Date:

Astronomy

Oct. 14, 2011 Rise Set
Actual Time 7:12 AM CEST 6:24 PM CEST
Civil Twilight 6:44 AM CEST 6:52 PM CEST
Nautical Twilight 6:13 AM CEST 7:24 PM CEST
Astronomical Twilight 5:41 AM CEST 7:55 PM CEST
Moon 7:25 PM CEST (10/14) 9:26 AM CEST (10/14)
Length of Visible Light 12h 07m
Length of Day
11h 12m
Waning Gibbous, 95% of the Moon is Illuminated
Oct 14
Waning Gibbous
Oct 20
Last Quarter
Oct 26
New
Nov 2
First Quarter
Nov 10
Full

Hourly Weather History & Observations

Time (CEST) Temp. Dew Point Humidity Pressure Visibility Wind Dir Wind Speed Gust Speed Precip Events Conditions
12:20 AM 66.2 °F 57.2 °F 73% 29.98 in - NNE 6.9 mph - N/A   Clear
12:50 AM 64.4 °F 55.4 °F 73% 29.98 in - NE 4.6 mph - N/A   Clear
1:20 AM 64.4 °F 55.4 °F 73% 29.98 in - NNE 5.8 mph - N/A   Clear
1:50 AM 66.2 °F 57.2 °F 73% 29.98 in - NNE 5.8 mph - N/A   Clear
2:00 AM 66 °F 57 °F 64% 29.98 in 19 mi NNE 6.9 mph - -  
2:20 AM 66.2 °F 57.2 °F 73% 29.98 in - NNE 12.7 mph - N/A   Clear
2:50 AM 66.2 °F 55.4 °F 68% 29.98 in - ENE 10.4 mph - N/A   Clear
3:20 AM 66.2 °F 55.4 °F 68% 29.98 in 6.2 mi ENE 11.5 mph - N/A   Scattered Clouds
3:50 AM 66.2 °F 53.6 °F 64% 29.95 in 6.2 mi ENE 23.0 mph 38.0 mph N/A   Scattered Clouds
4:20 AM 66.2 °F 51.8 °F 60% 29.95 in 6.2 mi ENE 21.9 mph - N/A   Scattered Clouds
4:50 AM 66.2 °F 53.6 °F 64% 29.95 in 6.2 mi NE 16.1 mph 28.8 mph N/A   Scattered Clouds
5:00 AM 67 °F 52 °F 49% 29.96 in 9 mi NE 17.3 mph - -   Partly Cloudy
5:20 AM 64.4 °F 51.8 °F 64% 29.98 in 6.2 mi NNE 12.7 mph - N/A   Scattered Clouds
5:50 AM 64.4 °F 51.8 °F 64% 29.95 in 6.2 mi NNE 13.8 mph - N/A   Scattered Clouds
6:20 AM 64.4 °F 51.8 °F 64% 29.95 in 6.2 mi NE 17.3 mph - N/A   Partly Cloudy
6:50 AM 66.2 °F 51.8 °F 60% 29.98 in 6.2 mi ENE 13.8 mph - N/A   Partly Cloudy
7:20 AM 64.4 °F 50.0 °F 59% 29.98 in 6.2 mi ENE 13.8 mph 25.3 mph N/A   Mostly Cloudy
7:50 AM 64.4 °F 50.0 °F 59% 29.98 in 6.2 mi ENE 12.7 mph - N/A   Scattered Clouds
8:00 AM 65 °F 49 °F 47% 29.97 in 12 mi ENE 13.8 mph - -   Scattered Clouds
8:20 AM 64.4 °F 48.2 °F 56% 29.98 in 6.2 mi ENE 19.6 mph - N/A   Scattered Clouds
8:50 AM 64.4 °F 50.0 °F 59% 29.98 in 6.2 mi ENE 15.0 mph - N/A   Scattered Clouds
9:20 AM 64.4 °F 50.0 °F 59% 29.98 in 6.2 mi ENE 17.3 mph - N/A   Mostly Cloudy
9:50 AM 64.4 °F 48.2 °F 56% 29.98 in 6.2 mi ENE 18.4 mph - N/A   Mostly Cloudy
10:20 AM 62.6 °F 48.2 °F 59% 30.01 in 6.2 mi ENE 16.1 mph - N/A   Mostly Cloudy
10:50 AM 60.8 °F 50.0 °F 68% 30.01 in 6.2 mi ENE 16.1 mph - N/A Rain Rain
11:00 AM 62 °F 48 °F 51% 30.02 in 12 mi ENE 15.0 mph - -   Partly Cloudy
11:20 AM 62.6 °F 48.2 °F 59% 30.01 in 6.2 mi ENE 12.7 mph - N/A Thunderstorm Scattered Clouds
11:50 AM 62.6 °F 46.4 °F 55% 30.04 in 6.2 mi ENE 10.4 mph - N/A Thunderstorm Thunderstorm
12:20 PM 62.6 °F 46.4 °F 55% 30.04 in 6.2 mi East 9.2 mph - N/A Rain , Thunderstorm Light Thunderstorms and Rain
12:50 PM 60.8 °F 46.4 °F 59% 30.04 in 6.2 mi East 10.4 mph - N/A Rain , Thunderstorm Light Thunderstorms and Rain
1:50 PM 60.8 °F 48.2 °F 63% 30.04 in 6.2 mi East 12.7 mph - N/A Rain Rain
2:00 PM 62 °F 48 °F 49% 30.03 in 9 mi East 15.0 mph - -   Scattered Clouds
2:20 PM 62.6 °F 48.2 °F 59% 30.01 in 6.2 mi ENE 16.1 mph 29.9 mph N/A Rain Rain
2:50 PM 60.8 °F 48.2 °F 63% 30.01 in 6.2 mi East 15.0 mph 27.6 mph N/A   Mostly Cloudy
3:20 PM 60.8 °F 46.4 °F 59% 30.01 in 6.2 mi ENE 18.4 mph 29.9 mph N/A   Light Drizzle
3:50 PM 62.6 °F 44.6 °F 52% 30.01 in 6.2 mi ENE 19.6 mph 34.5 mph N/A   Mostly Cloudy
4:20 PM 60.8 °F 42.8 °F 52% 30.01 in 6.2 mi East 12.7 mph 26.5 mph N/A   Mostly Cloudy
4:50 PM 60.8 °F 44.6 °F 55% 30.01 in 6.2 mi East 11.5 mph - N/A   Mostly Cloudy
5:00 PM 61 °F 46 °F 46% 30.01 in 16 mi East 10.4 mph - -   Scattered Clouds
5:20 PM 59.0 °F 46.4 °F 63% 30.01 in 6.2 mi East 11.5 mph - N/A   Mostly Cloudy
5:50 PM 57.2 °F 46.4 °F 67% 30.01 in 6.2 mi ENE 10.4 mph - N/A Rain Light Rain
6:20 PM 57.2 °F 46.4 °F 67% 30.01 in 6.2 mi ENE 9.2 mph - N/A   Light Drizzle
6:50 PM 59.0 °F 42.8 °F 55% 30.01 in 6.2 mi ENE 13.8 mph - N/A   Mostly Cloudy
7:20 PM 60.8 °F 39.2 °F 45% 30.01 in 6.2 mi ENE 15.0 mph - N/A   Mostly Cloudy
7:50 PM 59.0 °F 41.0 °F 51% 30.04 in 6.2 mi NE 17.3 mph - N/A   Mostly Cloudy
8:00 PM 59 °F 41 °F 39% 30.04 in 19 mi NE 15.0 mph - -   Mostly Cloudy
8:20 PM 59.0 °F 39.2 °F 48% 30.04 in 6.2 mi NE 23.0 mph 34.5 mph N/A   Mostly Cloudy
8:50 PM 59.0 °F 39.2 °F 48% 30.04 in 6.2 mi NE 16.1 mph - N/A   Mostly Cloudy
9:20 PM 59.0 °F 37.4 °F 45% 30.04 in 6.2 mi ENE 15.0 mph - N/A   Mostly Cloudy
9:50 PM 60.8 °F 37.4 °F 42% 30.06 in 6.2 mi NE 13.8 mph - N/A   Mostly Cloudy
10:20 PM 60.8 °F 37.4 °F 42% 30.06 in 6.2 mi ENE 12.7 mph - N/A   Mostly Cloudy
10:50 PM 60.8 °F 37.4 °F 42% 30.06 in 6.2 mi NE 21.9 mph - N/A   Mostly Cloudy
11:00 PM 60 °F 38 °F 32% 30.07 in 19 mi NE 18.4 mph - -   Mostly Cloudy
11:20 PM 60.8 °F 39.2 °F 45% 30.06 in 6.2 mi NE 20.7 mph 32.2 mph N/A   Mostly Cloudy
11:50 PM 60.8 °F 39.2 °F 45% 30.06 in 6.2 mi NE 17.3 mph - N/A   Mostly Cloudy